Location: Newark
(35.6799°N, 139.7636°E)
Time: 22:27:43
(UTC+00:00)

Transit 2A - Pass Details

Date: 07 December 2019
Orbit: 601 x 957 km, 66.7° (Epoch: 17 January)

Event Time Altitude Azimuth Distance (km) Brightness Sun altitude
Rises 21:48:31 0° 203° (SSW) 3,190 9.3 1.1°
Reaches altitude 10° 21:50:59 10° 203° (SSW) 2,212 8.5 1.6°
Maximum altitude 21:55:59 82° 117° (ESE) 687 6.0 2.4°
Drops below altitude 10° 22:00:34 10° 29° (NNE) 2,034 8.2 3.2°
Sets 22:02:45 0° 28° (NNE) 2,913 9.0 3.6°
